Theta_e
313 314 314 314 313 313 313 313 313 314 313 311 311 312 314 314 315 315 314 314 315 315 316 316 316 316 315 315 315 315 314 315 316 315 315 315 316 315 315 315 314 313 312
313 314 315 315 315 315 314 314 314 314 312 312 311 312 312 314 314 314 313 313 313 314 315 315 314 314 315 315 314 316 316 317 316 315 315 316 316 317 316 317 317 315 313
314 315 315 316 315 315 315 314 313 313 312 311 312 312 312 312 312 312 314 314 314 314 314 314 314 315 315 316 316 316 317 317 316 315 316 315 315 316 315 315 318 316 314
314 315 315 315 315 315 314 313 314 313 313 312 312 311 312 311 312 314 314 314 313 314 315 315 315 315 317 316 314 314 315 315 313 314 313 314 315 315 314 315 315 316 314
315 315 316 316 313 313 314 314 314 314 314 314 313 313 313 311 308 311 314 313 313 313 313 310 311 309 309 311 314 317 317 317 316 316 315 314 315 315 315 315 314 314 315
315 315 315 314 314 313 314 315 316 315 314 314 314 314 314 310 308 309 313 316 314 316 315 315 314 315 314 313 313 311 311 314 317 317 317 317 317 317 316 316 315 316 315
315 314 312 314 313 314 314 314 314 316 317 315 314 314 313 310 308 309 310 316 315 315 315 315 314 314 316 315 315 315 314 314 314 315 318 317 318 318 317 316 316 316 315
315 313 312 312 312 311 313 315 315 316 317 316 314 314 314 309 309 309 309 315 314 314 314 313 314 315 314 311 311 315 313 315 315 313 314 316 313 308 310 312 313 317 317
315 312 314 314 314 314 311 312 315 315 316 315 313 314 313 314 307 308 308 313 314 314 314 314 312 313 313 309 311 314 313 313 312 311 310 309 309 308 304 308 312 310 310
315 313 314 314 314 315 316 316 314 313 315 316 313 313 313 313 311 307 308 310 313 312 312 315 311 309 308 306 311 313 312 312 312 311 313 313 313 314 308 310 309 308 309
315 313 313 314 314 314 316 317 317 314 312 312 312 314 314 314 313 308 306 307 310 311 314 313 308 307 306 306 306 310 307 304 310 312 312 310 311 312 312 311 309 307 307
315 314 314 314 314 314 316 317 318 317 314 312 311 311 313 316 312 308 305 305 306 309 313 314 310 307 306 307 306 304 305 306 310 310 310 310 309 309 310 309 309 309 308
316 316 316 315 314 314 314 315 317 317 314 312 310 308 307 310 311 307 306 304 305 307 310 310 308 307 308 308 308 306 306 308 308 308 309 309 309 308 308 309 308 308 307
316 316 316 315 315 313 313 313 315 313 314 313 311 310 307 306 308 309 307 308 308 309 309 310 311 310 308 309 308 308 309 308 307 308 308 308 308 308 308 308 307 307 306
316 317 317 316 315 315 314 314 314 314 314 312 311 310 309 309 307 305 304 305 305 305 307 309 311 313 313 311 311 309 308 308 306 307 306 307 307 307 307 307 307 306 306
316 316 316 315 315 314 314 313 314 313 312 309 309 308 308 307 304 303 302 302 301 301 304 307 309 311 311 311 310 308 307 306 306 304 305 306 307 307 307 306 307 306 306
316 317 316 316 315 315 315 314 313 313 313 311 309 308 308 305 304 303 302 302 302 302 303 306 308 310 310 310 308 307 306 305 304 304 305 305 306 306 306 306 306 306 305
315 316 316 316 315 314 315 313 314 313 314 314 311 309 308 308 307 304 301 301 304 305 305 307 307 308 309 309 307 306 305 304 303 303 304 306 306 306 305 306 306 306 304
314 315 316 315 315 315 314 315 314 313 314 314 313 310 309 308 307 304 303 302 306 309 309 308 307 308 308 307 306 305 304 303 302 301 304 305 305 305 305 305 305 304 302
315 314 315 315 315 315 314 315 313 313 314 314 313 312 311 308 308 307 305 307 309 309 308 308 307 307 306 306 305 304 303 302 302 303 303 303 304 304 304 304 304 304 304
316 315 315 315 315 314 313 313 313 314 313 313 314 312 310 311 309 309 309 309 308 308 308 307 306 306 306 305 304 303 302 301 301 301 302 303 303 303 304 303 303 304 303
313 315 315 315 314 313 313 313 313 313 314 313 313 312 309 310 310 310 310 310 309 308 307 307 306 305 305 304 303 302 302 301 301 300 301 301 302 303 303 303 302 303 302
310 311 313 315 315 314 314 314 314 313 314 313 313 313 311 312 311 311 311 311 310 310 309 308 307 305 304 304 303 302 301 301 300 299 299 300 301 302 302 302 302 302 302
308 310 312 312 314 315 314 313 313 314 314 313 314 313 313 312 314 313 312 312 311 310 310 310 309 308 306 304 303 302 301 300 298 297 298 299 299 300 301 302 301 301 301
308 309 310 312 312 313 316 315 313 315 314 313 314 313 313 314 313 313 313 312 311 311 310 310 310 309 308 306 304 303 300 298 296 295 294 295 297 298 299 301 301 301 301
308 307 308 310 312 312 317 315 315 315 314 313 314 313 313 314 313 313 313 313 312 313 311 310 310 309 309 307 305 304 301 299 296 295 292 294 295 297 299 300 301 301 300
Wind_Speed
9 10 10 10 10 9 8 9 10 10 11 10 10 11 9 9 8 9 9 9 9 9 9 9 9 10 11 5 5 4 5 14 6 11 9 5 2 1 1 2 4 8 11
8 10 12 12 9 8 8 8 10 8 9 10 8 10 12 9 8 8 9 9 11 10 8 7 8 8 5 4 6 8 8 5 5 7 6 4 3 3 4 6 6 9 13
10 11 14 12 10 8 9 8 8 8 7 8 7 6 8 8 9 10 14 12 10 9 9 10 10 8 7 8 11 10 6 5 4 3 3 4 1 4 8 5 8 8 9
8 10 11 10 10 8 9 10 10 8 7 8 8 7 7 7 9 15 10 8 10 10 8 9 10 8 7 7 7 5 4 0 3 2 2 6 7 8 5 3 9 9 10
10 7 8 10 9 7 7 8 8 9 9 8 6 6 7 8 7 8 11 9 9 10 10 12 11 11 10 9 10 9 8 11 11 9 8 3 6 3 7 8 9 8 4
6 7 5 5 8 5 5 5 4 6 7 8 9 9 9 9 7 7 9 10 8 8 7 6 6 7 7 9 10 8 6 5 8 10 9 9 6 7 7 10 12 12 8
8 9 4 5 6 8 8 8 8 5 4 6 8 9 9 7 7 6 6 5 2 5 8 7 12 7 6 8 9 11 5 4 6 7 8 9 8 8 8 10 8 9 10
7 7 6 6 4 5 5 5 7 7 4 4 6 6 6 6 7 6 6 5 5 4 4 4 4 5 5 9 10 14 6 4 2 5 5 6 6 8 8 10 13 11 15
12 3 3 8 13 10 5 6 5 6 5 2 1 2 3 3 6 7 8 5 8 4 4 1 5 6 7 9 9 11 9 7 8 3 6 7 9 8 7 9 10 12 12
10 4 4 3 5 7 9 7 5 7 6 8 3 3 3 3 6 6 9 11 4 7 12 3 3 5 6 6 7 10 10 9 9 8 8 9 6 4 5 3 9 11 11
12 6 7 9 9 6 8 10 7 6 7 7 8 6 6 6 5 6 5 6 8 10 9 11 7 6 5 6 6 5 7 10 9 13 12 7 4 7 6 1 5 8 11
9 9 9 8 9 11 5 8 7 6 8 10 5 7 11 9 7 7 6 6 6 9 10 7 5 5 6 7 4 9 8 8 12 8 7 6 6 7 5 5 6 7 8
12 13 10 11 12 11 10 12 13 10 6 7 5 5 5 5 6 6 7 8 9 8 10 8 8 6 6 9 5 6 6 8 8 9 8 7 6 6 7 9 8 11 12
14 13 11 14 15 9 14 12 16 12 12 6 5 5 4 4 5 4 4 6 8 9 12 11 7 10 13 9 9 9 7 5 8 9 9 9 8 8 8 4 8 8 10
14 13 11 15 15 13 15 15 14 10 7 10 10 6 6 5 4 2 3 4 5 7 9 10 14 15 11 9 8 6 7 6 8 8 9 9 9 8 8 6 6 8 9
16 14 14 15 18 11 15 13 16 11 12 10 13 10 4 6 8 7 7 7 7 8 9 13 14 11 10 8 6 7 7 6 7 8 9 9 9 9 9 9 9 7 8
19 16 14 15 13 15 14 17 12 12 19 17 14 14 14 12 9 10 11 11 10 11 12 13 14 11 10 7 8 7 8 7 6 9 8 8 8 9 8 10 9 6 7
18 18 16 16 16 15 12 18 21 16 14 22 20 16 13 15 15 14 13 13 13 17 15 14 11 10 8 8 7 8 8 7 8 7 8 8 8 8 10 10 9 3 6
19 20 19 17 21 13 15 22 20 14 12 21 7 18 15 12 13 13 14 14 14 13 11 11 9 8 8 7 7 6 5 8 6 8 8 8 8 8 10 9 8 4 4
20 23 20 19 18 18 19 17 19 16 19 15 16 9 17 14 12 16 17 14 14 11 10 8 9 8 8 8 6 6 8 8 7 8 8 7 8 8 10 8 8 9 8
20 20 18 20 24 19 22 15 20 11 20 16 16 10 8 8 10 12 9 14 10 10 9 8 9 10 9 7 7 8 7 8 7 8 8 8 7 8 9 8 9 8 8
21 23 21 19 22 23 21 28 9 25 21 12 17 8 9 8 11 12 10 9 9 9 9 8 9 10 9 7 6 6 8 8 8 7 8 9 9 9 7 8 8 8 8
19 23 24 22 23 22 23 27 17 24 26 20 20 13 15 14 15 16 13 9 8 8 8 9 9 9 9 7 7 8 8 7 6 7 8 9 9 8 8 8 9 8 8
17 19 20 21 25 23 23 24 27 25 22 25 20 15 22 16 17 15 16 13 12 11 10 10 10 10 8 9 9 9 9 7 4 6 8 9 9 8 8 10 8 9 8
21 21 26 22 21 26 31 22 22 25 19 26 28 21 20 11 12 17 21 14 14 15 15 12 12 12 12 12 12 8 9 10 9 9 8 8 9 9 10 10 10 10 9
18 20 22 24 24 23 24 22 20 21 25 21 25 23 19 16 23 16 14 7 15 22 18 15 13 13 13 13 13 14 15 13 10 9 8 7 9 9 10 10 10 10 10
Wind_Direction
332 353 343 346 348 353 0 348 350 357 359 356 352 1 20 31 29 17 32 39 46 50 47 51 52 49 35 59 52 49 59 78 81 130 142 126 141 226 294 270 261 265 254
319 350 351 348 332 342 359 2 356 12 2 341 12 5 9 34 27 11 28 33 35 39 48 51 55 51 65 26 67 21 46 48 34 67 79 142 169 225 263 253 257 267 248
325 11 1 6 10 19 18 9 9 27 15 0 18 20 11 18 23 23 31 22 53 39 47 51 42 46 53 59 47 35 52 55 49 113 198 165 184 241 261 265 245 253 270
341 359 358 0 38 33 33 38 37 37 38 27 23 14 11 2 24 25 42 47 55 61 61 65 60 61 68 58 65 61 50 71 89 23 94 215 233 229 303 243 258 246 282
330 4 7 345 35 37 35 27 30 45 42 46 41 28 12 44 30 18 357 53 58 65 65 69 65 60 52 36 32 25 4 356 353 360 333 98 54 149 350 321 328 308 195
353 341 327 30 2 34 5 13 31 20 33 50 48 52 46 47 38 36 23 17 45 50 38 51 73 54 31 31 18 8 3 346 350 349 351 353 352 344 346 341 329 339 336
324 302 352 3 344 343 347 353 357 5 24 35 53 48 54 40 26 21 13 358 73 67 71 38 30 63 16 14 346 326 327 351 9 334 322 337 338 335 336 329 328 313 292
289 311 353 341 340 353 328 346 328 338 349 44 58 51 55 29 20 9 349 339 51 38 43 43 27 3 14 354 334 330 334 318 360 322 309 319 327 328 334 315 297 293 282
282 326 38 350 349 345 359 334 316 319 312 251 24 20 23 34 3 358 346 309 304 296 272 37 4 344 333 337 336 331 338 357 328 325 333 335 332 328 340 333 344 322 335
280 280 353 353 318 328 337 317 315 313 258 291 245 250 277 286 315 334 339 329 323 337 316 177 78 32 39 35 4 343 334 349 325 319 302 294 284 306 329 357 336 331 330
257 259 273 302 320 319 335 323 292 297 321 315 292 269 258 257 266 291 313 332 337 328 345 122 77 45 27 13 5 347 327 318 297 277 276 306 255 221 239 324 329 324 331
257 260 266 281 288 309 315 318 292 266 276 266 246 263 258 215 236 267 282 292 302 316 304 42 55 357 340 333 334 325 318 309 299 307 305 318 325 316 337 341 309 297 300
260 273 266 272 279 289 306 295 283 249 247 288 296 293 282 234 199 229 282 273 273 278 285 311 309 307 304 291 253 333 301 303 331 314 321 316 318 307 300 270 264 258 286
256 263 266 268 265 282 293 317 305 318 302 278 293 329 303 250 241 206 257 268 247 268 270 262 245 272 259 251 261 241 271 313 319 301 312 305 301 292 293 303 309 311 310
260 261 267 264 260 271 293 307 291 291 301 317 321 314 306 278 108 207 266 293 313 309 302 277 258 253 257 240 252 293 295 293 308 308 302 301 298 304 302 316 296 302 311
259 253 263 277 281 265 280 288 271 281 268 252 244 247 280 264 282 268 258 271 281 290 288 270 270 271 277 278 285 293 294 299 309 307 292 295 302 306 314 309 288 304 312
256 260 253 259 275 283 277 287 286 280 272 245 234 235 236 234 239 249 259 267 268 274 268 262 261 269 270 274 276 285 296 307 310 280 302 295 295 299 296 295 302 295 315
263 257 259 252 262 265 278 279 282 280 287 234 221 215 226 230 237 251 258 258 268 250 247 261 263 264 260 267 277 289 297 296 288 293 292 291 292 297 299 300 299 327 327
263 265 251 252 261 261 274 276 277 272 303 295 217 204 206 210 223 236 243 239 266 274 248 269 272 266 268 269 275 280 289 282 289 291 284 287 288 292 295 298 313 275 267
272 262 260 258 263 258 250 258 285 271 268 276 294 273 172 186 217 229 226 223 239 266 276 278 271 269 268 270 279 277 270 264 271 267 277 287 281 286 290 311 307 310 293
300 281 282 254 262 258 265 246 254 287 272 264 308 268 158 221 285 282 238 243 261 256 262 270 273 260 248 247 255 260 268 276 276 276 277 277 279 285 290 304 299 295 297
322 311 293 282 249 260 265 274 235 266 271 254 266 241 212 241 256 260 254 252 264 263 254 255 261 265 258 258 272 275 271 272 273 276 282 282 282 283 291 293 297 300 302
314 311 301 295 275 266 254 256 240 257 273 260 266 257 193 252 269 265 248 241 249 257 264 252 255 267 263 241 243 257 270 273 277 280 282 282 283 287 292 297 294 296 299
304 289 291 291 291 279 257 247 269 249 254 268 259 257 275 258 258 267 268 269 260 248 248 248 251 256 257 245 244 248 250 236 249 279 278 280 279 278 274 270 284 286 290
325 332 313 290 282 287 273 249 236 258 244 257 263 242 262 271 284 236 252 265 262 257 251 246 247 251 245 244 245 244 226 235 259 261 269 269 270 273 272 272 275 284 282
322 313 317 306 292 295 276 256 255 269 259 246 265 262 247 278 247 254 282 276 264 268 255 245 247 240 247 243 239 235 239 246 263 267 255 259 264 265 264 269 274 274 274